• In Czech Republic
  • List of Countries
  • For 7 days
  • Water Temperature
  • Satellite Maps
  • Weather Map
  • Weather Widgets
  • user-avatar
    Login

    Hourly Weather Townsville

    Today, 27 May, Saturday

    Time Temperature Precipitation Wind Pressure Humidity
    00:00 +19°C° 0 mm 3 mps 756 mmHg 95%
    01:00 +18°C° 0 mm 3 mps 756 mmHg 96%
    02:00 +18°C° 0 mm 3 mps 756 mmHg 96%
    03:00 +18°C° 0 mm 3 mps 756 mmHg 96%
    04:00 +17°C° 0 mm 3 mps 756 mmHg 97%
    05:00 +17°C° 0 mm 3 mps 756 mmHg 97%
    06:00 +17°C° 0 mm 3 mps 756 mmHg 96%
    07:00 +17°C° 0 mm 3 mps 756 mmHg 96%
    08:00 +19°C° 0 mm 3 mps 756 mmHg 86%
    09:00 +22°C° 0 mm 3 mps 756 mmHg 75%
    10:00 +25°C° 0 mm 3 mps 757 mmHg 64%
    11:00 +26°C° 0 mm 3 mps 756 mmHg 61%
    12:00 +27°C° 0 mm 3 mps 756 mmHg 57%
    13:00 +28°C° 0 mm 3 mps 755 mmHg 53%
    14:00 +27°C° 0 mm 3 mps 755 mmHg 57%
    15:00 +27°C° 0 mm 3 mps 755 mmHg 60%
    16:00 +26°C° 0 mm 3 mps 754 mmHg 63%
    17:00 +25°C° 0 mm 3 mps 755 mmHg 73%
    18:00 +22°C° 0 mm 3 mps 755 mmHg 82%
    19:00 +20°C° 0 mm 3 mps 755 mmHg 91%
    20:00 +19°C° 0 mm 3 mps 756 mmHg 92%
    21:00 +19°C° 0 mm 3 mps 756 mmHg 93%
    22:00 +19°C° 0 mm 3 mps 756 mmHg 94%
    23:00 +18°C° 0 mm 3 mps 756 mmHg 95%

    Tomorrow, 28 May, Sunday

    Time Temperature Precipitation Wind Pressure Humidity
    00:00 +18°C° 0 mm 3 mps 756 mmHg 95%
    01:00 +18°C° 0 mm 3 mps 756 mmHg 96%
    02:00 +18°C° 0 mm 3 mps 756 mmHg 96%
    03:00 +17°C° 0 mm 3 mps 755 mmHg 97%
    04:00 +17°C° 0 mm 3 mps 755 mmHg 97%
    05:00 +17°C° 0 mm 3 mps 755 mmHg 97%
    06:00 +17°C° 0 mm 3 mps 755 mmHg 96%
    07:00 +17°C° 0 mm 3 mps 756 mmHg 96%
    08:00 +19°C° 0 mm 3 mps 756 mmHg 85%
    09:00 +22°C° 0 mm 3 mps 756 mmHg 75%
    10:00 +25°C° 0 mm 3 mps 756 mmHg 64%
    11:00 +26°C° 0 mm 3 mps 756 mmHg 60%
    12:00 +27°C° 0 mm 3 mps 755 mmHg 55%
    13:00 +28°C° 0 mm 3 mps 755 mmHg 51%
    14:00 +28°C° 0 mm 3 mps 755 mmHg 54%
    15:00 +28°C° 0 mm 3 mps 754 mmHg 56%
    16:00 +27°C° 0 mm 3 mps 754 mmHg 59%
    17:00 +25°C° 0 mm 3 mps 754 mmHg 70%
    18:00 +22°C° 0 mm 3 mps 755 mmHg 81%
    19:00 +20°C° 0 mm 3 mps 755 mmHg 92%
    20:00 +20°C° 0 mm 3 mps 755 mmHg 94%
    21:00 +19°C° 0 mm 3 mps 756 mmHg 95%
    22:00 +19°C° 0 mm 3 mps 756 mmHg 96%
    23:00 +19°C° 0 mm 3 mps 756 mmHg 97%

    Day after tomorrow, 29 May, Monday

    Time Temperature Precipitation Wind Pressure Humidity
    00:00 +19°C° 0 mm 3 mps 756 mmHg 97%
    01:00 +18°C° 0 mm 3 mps 756 mmHg 97%
    02:00 +18°C° 0 mm 3 mps 756 mmHg 97%
    03:00 +18°C° 0 mm 3 mps 755 mmHg 97%
    04:00 +18°C° 0 mm 3 mps 755 mmHg 97%
    05:00 +18°C° 0 mm 3 mps 755 mmHg 97%
    06:00 +18°C° 0 mm 3 mps 756 mmHg 96%
    07:00 +18°C° 0 mm 3 mps 756 mmHg 96%
    08:00 +20°C° 0 mm 3 mps 756 mmHg 87%
    09:00 +24°C° 0 mm 3 mps 757 mmHg 77%
    10:00 +26°C° 0 mm 3 mps 757 mmHg 68%
    11:00 +27°C° 0 mm 3 mps 756 mmHg 61%
    12:00 +28°C° 0 mm 3 mps 756 mmHg 54%
    13:00 +29°C° 0 mm 4 mps 755 mmHg 47%
    14:00 +28°C° 0 mm 3 mps 755 mmHg 49%
    15:00 +28°C° 0 mm 3 mps 755 mmHg 51%
    16:00 +28°C° 0 mm 3 mps 754 mmHg 53%
    17:00 +26°C° 0 mm 3 mps 755 mmHg 61%
    18:00 +24°C° 0 mm 3 mps 755 mmHg 70%
    19:00 +21°C° 0 mm 3 mps 756 mmHg 78%
    20:00 +20°C° 0 mm 3 mps 756 mmHg 82%
    21:00 +20°C° 0 mm 3 mps 756 mmHg 85%
    22:00 +20°C° 0 mm 3 mps 757 mmHg 89%
    23:00 +19°C° 0 mm 3 mps 757 mmHg 88%

    30 May, Tuesday

    Time Temperature Precipitation Wind Pressure Humidity
    00:00 +19°C° 0 mm 3 mps 756 mmHg 88%
    01:00 +18°C° 0 mm 4 mps 756 mmHg 88%
    02:00 +18°C° 0 mm 4 mps 756 mmHg 87%
    03:00 +18°C° 0 mm 4 mps 755 mmHg 86%
    04:00 +18°C° 0 mm 4 mps 755 mmHg 85%
    05:00 +18°C° 0 mm 4 mps 756 mmHg 84%
    06:00 +18°C° 0 mm 4 mps 756 mmHg 83%
    07:00 +18°C° 0 mm 4 mps 757 mmHg 82%
    08:00 +20°C° 0 mm 4 mps 757 mmHg 75%
    09:00 +22°C° 0 mm 4 mps 757 mmHg 69%
    10:00 +25°C° 0 mm 4 mps 757 mmHg 63%
    11:00 +26°C° 0 mm 4 mps 757 mmHg 58%
    12:00 +28°C° 0 mm 4 mps 756 mmHg 53%
    13:00 +29°C° 0 mm 4 mps 755 mmHg 49%
    14:00 +29°C° 0 mm 4 mps 755 mmHg 51%
    15:00 +28°C° 0 mm 4 mps 755 mmHg 52%
    16:00 +28°C° 0 mm 3 mps 754 mmHg 54%
    17:00 +26°C° 0 mm 3 mps 755 mmHg 65%
    18:00 +24°C° 0 mm 3 mps 755 mmHg 76%
    19:00 +20°C° 0 mm 3 mps 756 mmHg 86%
    20:00 +20°C° 0 mm 4 mps 756 mmHg 88%
    21:00 +20°C° 0 mm 4 mps 757 mmHg 91%
    22:00 +19°C° 0 mm 4 mps 757 mmHg 93%
    23:00 +19°C° 0 mm 4 mps 757 mmHg 94%

    31 May, Wednesday

    Time Temperature Precipitation Wind Pressure Humidity
    00:00 +19°C° 0 mm 4 mps 756 mmHg 94%
    01:00 +19°C° 0 mm 4 mps 756 mmHg 95%
    02:00 +19°C° 0 mm 5 mps 756 mmHg 95%
    03:00 +19°C° 0 mm 5 mps 756 mmHg 95%
    04:00 +17°C° 0 mm 5 mps 756 mmHg 95%
    05:00 +17°C° 0 mm 5 mps 756 mmHg 95%
    06:00 +17°C° 0 mm 5 mps 757 mmHg 94%
    07:00 +16°C° 0 mm 5 mps 757 mmHg 94%
    08:00 +20°C° 0 mm 5 mps 757 mmHg 81%
    09:00 +22°C° 0 mm 5 mps 757 mmHg 68%
    10:00 +25°C° 0 mm 5 mps 758 mmHg 55%
    11:00 +26°C° 0 mm 5 mps 757 mmHg 51%
    12:00 +27°C° 0 mm 4 mps 756 mmHg 46%
    13:00 +28°C° 0 mm 4 mps 756 mmHg 42%
    14:00 +28°C° 0.1 mm 4 mps 755 mmHg 44%
    15:00 +28°C° 0.1 mm 4 mps 755 mmHg 46%
    16:00 +28°C° 0.1 mm 4 mps 755 mmHg 48%
    17:00 +25°C° 0.1 mm 4 mps 756 mmHg 57%
    18:00 +22°C° 0.1 mm 4 mps 756 mmHg 66%
    19:00 +20°C° 0.1 mm 4 mps 757 mmHg 75%
    20:00 +20°C° 0 mm 4 mps 757 mmHg 77%
    21:00 +20°C° 0 mm 5 mps 758 mmHg 78%
    22:00 +20°C° 0 mm 5 mps 758 mmHg 79%
    23:00 +20°C° 0 mm 5 mps 757 mmHg 80%

    1 June, Thursday

    Time Temperature Precipitation Wind Pressure Humidity
    00:00 +20°C° 0 mm 5 mps 757 mmHg 80%
    01:00 +19°C° 0 mm 5 mps 757 mmHg 80%
    02:00 +19°C° 0 mm 5 mps 757 mmHg 79%
    03:00 +19°C° 0 mm 5 mps 757 mmHg 78%
    04:00 +17°C° 0 mm 5 mps 757 mmHg 77%
    05:00 +17°C° 0 mm 5 mps 757 mmHg 75%
    06:00 +16°C° 0 mm 5 mps 758 mmHg 72%
    07:00 +16°C° 0 mm 5 mps 758 mmHg 69%
    08:00 +17°C° 0 mm 5 mps 758 mmHg 63%
    09:00 +20°C° 0 mm 5 mps 758 mmHg 57%
    10:00 +22°C° 0 mm 6 mps 759 mmHg 51%
    11:00 +23°C° 0 mm 5 mps 758 mmHg 48%
    12:00 +25°C° 0 mm 5 mps 758 mmHg 46%
    13:00 +26°C° 0 mm 5 mps 757 mmHg 44%
    14:00 +26°C° 0 mm 5 mps 757 mmHg 46%
    15:00 +25°C° 0 mm 5 mps 757 mmHg 48%
    16:00 +25°C° 0 mm 5 mps 757 mmHg 49%
    17:00 +23°C° 0 mm 5 mps 758 mmHg 51%
    18:00 +22°C° 0 mm 5 mps 758 mmHg 53%
    19:00 +20°C° 0 mm 5 mps 758 mmHg 55%
    20:00 +20°C° 0 mm 5 mps 759 mmHg 55%
    21:00 +20°C° 0 mm 5 mps 759 mmHg 56%
    22:00 +19°C° 0 mm 5 mps 759 mmHg 56%
    23:00 +19°C° 0 mm 5 mps 759 mmHg 55%
    Show more